Weather in Tomai

Moldova     46°11′18″N   28°45′58″E
temp.,
°C
wind,
m/s
gust,
m/s
humid.,
%
clouds,
%
prec.,
mm/h
press.,
hPa
HPBL,
m
13 may, thu
thu1300:00+10ese2586100 0.8 1012215
03:00+10ese3682100 0.9 1011222
06:00+10ese4980100 0.0 1010310
09:00+13sse7964100 0.0 1009731
12:00+11sse61184100 0.8 1009542
15:00+12ese51083100 1.6 1008508
18:00+17sse596796 0.0 1006708
21:00+12se498338 0.0 1007164
14 may, fri
fri1400:00+10sse4108658 0.0 1007200
03:00+11sse4990100 0.5 1006248
06:00+10sse3109699 0.3 1005352
09:00+16wsw67745 0.4 1007659
12:00+20sw675392 0.1 10071564
15:00+20sw574749 0.3 10081561
18:00+20sw675062 0.0 1008941
21:00+17ssw346748 0.0 100970
15 may, sat
sat1500:00+14ssw337268 0.1 101024
03:00+13sw22786 0.1 101018
06:00+12sw11854 0.0 101113
09:00+17nw11600 0.0 1011419
12:00+21ssw34450 0.0 10111594
15:00+24sw453775 0.0 10102720
18:00+21sse585292 0.0 1009294
21:00+16se5117272 0.0 1010243
16 may, sun
sun1600:00+14ese2484100 0.0 101065
03:00+13ese2292100 0.0 101032
06:00+13e2391100 0.0 100977
09:00+17ese4568100 0.0 1009444
12:00+22se4550100 0.0 10091291
15:00+22se5448100 0.0 10071639
18:00+20ese6655100 0.0 1006996
21:00+17s2370100 0.0 100587
17 may, mon
mon1700:00+14nw2487100 0.0 100579
03:00+15sw1184100 0.1 100411
06:00+14wsw118447 0.0 100411
09:00+17w237398 0.1 1005328
12:00+22wnw55509 0.6 10051582
15:00+22w3546100 1.1 10051699
18:00+24w46369 0.0 10062278
21:00+18ssw225212 0.0 100711